Location: Bremen
(53.0793°N, 8.8017°E)
Time: 19:04:31
(UTC+02:00)

SR - Pass Details

Date: 13 April 2024
Orbit: 579 x 860 km, 66.7° (Epoch: 21 May)

Event Time Altitude Azimuth Distance (km) Brightness Sun altitude
Exits shadow 04:31:20 12° 179° (S) 2,280 ? -16.3°
Maximum altitude 04:35:56 35° 117° (ESE) 1,252 ? -15.8°
Drops below altitude 10° 04:40:36 10° 53° (NE) 2,262 ? -15.2°
Sets 04:43:03 0° 45° (NE) 3,141 ? -14.9°
